DW5479 Weather Reports


time (UTC)temp
F
wind
direction
speed
knots
gust
knots
rain 1hr
in
rain 24hr
in
rain mn
in
humidity
%
barometer
mb
20260904034532 82 157 5.2 8.7 0.00 0.00 0.00 75 1010.9
20260904033048 83 141 5.2 13.0 0.00 0.00 0.00 74 1010.6
20260904031603 84 165 7.0 13.0 0.00 0.00 0.00 71 1010.4
20260904030018 84 158 7.0 13.9 0.00 0.00 0.00 68 1010.3
20260904024533 85 144 7.0 15.6 0.00 0.00 0.00 65 1009.9
20260904023053 85 139 7.0 13.0 0.00 0.00 0.00 65 1009.7
20260904021528 85 189 5.2 11.3 0.00 0.00 0.00 64 1009.4
20260904020056 84 170 4.3 7.8 0.00 0.00 0.00 66 1009.2
20260904014608 85 148 1.7 6.1 0.00 0.00 0.00 65 1008.9
20260904013015 85 144 3.5 7.8 0.00 0.00 0.00 63 1008.8
20260904011537 85 148 3.5 7.8 0.00 0.00 0.00 63 1008.8
20260904010052 84 154 2.6 8.7 0.00 0.00 0.00 65 1008.6
20260904004503 83 167 4.3 11.3 0.00 0.00 0.00 68 1008.4
20260904003019 85 155 3.5 16.5 0.00 0.00 0.00 65 1008.4
20260904001536 87 169 7.0 14.8 0.00 0.00 0.00 60 1008.2
20260904000051 90 158 7.8 15.6 0.00 0.00 0.00 54 1007.8
20260903234513 97 140 5.2 10.4 0.00 0.00 0.00 44 1007.5
20260903233040 100 124 1.7 9.6 0.00 0.00 0.00 35 1007.2
20260903231603 101 150 4.3 9.6 0.00 0.00 0.00 35 1007.0
20260903230012 100 132 1.7 7.8 0.00 0.00 0.00 35 1006.9
20260903224539 100 148 2.6 8.7 0.00 0.00 0.00 35 1006.9
20260903223054 99 160 4.3 10.4 0.00 0.00 0.00 35 1006.9
20260903221505 101 148 2.6 7.8 0.00 0.00 0.00 35 1007.1
20260903220033 101 146 2.6 7.8 0.00 0.00 0.00 34 1007.2
20260903214544 101 148 3.5 7.8 0.00 0.00 0.00 35 1007.2
20260903213108 100 158 2.6 8.7 0.00 0.00 0.00 36 1007.5
20260903211533 99 169 0.9 6.1 0.00 0.00 0.00 37 1007.7
20260903210127 101 137 4.3 11.3 0.00 0.00 0.00 36 1007.9
20260903204506 101 169 1.7 5.2 0.00 0.00 0.00 35 1008.1
20260903203023 101 152 2.6 7.8 0.00 0.00 0.00 36 1008.3
20260903201541 100 153 4.3 8.7 0.00 0.00 0.00 37 1008.5
20260903200114 100 158 1.7 7.8 0.00 0.00 0.00 38 1008.6
20260903194514 100 143 3.5 9.6 0.00 0.00 0.00 38 1008.8
20260903193029 99 125 1.7 8.7 0.00 0.00 0.00 40 1008.9
20260903191527 99 148 1.7 7.8 0.00 0.00 0.00 41 1009.2
20260903190036 98 170 2.6 7.0 0.00 0.00 0.00 42 1009.5
20260903184537 98 139 4.3 7.8 0.00 0.00 0.00 44 1009.8
20260903183057 97 144 2.6 8.7 0.00 0.00 0.00 47 1010.0
20260903181507 96 140 6.1 10.4 0.00 0.00 0.00 44 1010.3
20260903180026 96 158 3.5 7.8 0.00 0.00 0.00 47 1010.5
20260903174544 95 158 2.6 8.7 0.00 0.00 0.00 48 1010.8
20260903173100 95 146 2.6 9.6 0.00 0.00 0.00 51 1011.0
20260903171515 93 139 3.5 7.8 0.00 0.00 0.00 51 1011.4
20260903170042 92 155 5.2 10.4 0.00 0.00 0.00 55 1011.6
20260903164550 91 155 5.2 9.6 0.00 0.00 0.00 57 1011.7
20260903163008 90 122 4.3 8.7 0.00 0.00 0.00 60 1011.8
20260903161532 89 155 3.5 7.8 0.00 0.00 0.00 61 1011.9
20260903160002 89 153 4.3 9.6 0.00 0.00 0.00 63 1011.9
20260903154520 88 162 3.5 8.7 0.00 0.00 0.00 65 1011.8
20260903153037 87 152 4.3 8.7 0.00 0.00 0.00 67 1011.8
20260903151607 86 179 2.6 7.8 0.00 0.00 0.00 70 1011.9
20260903150012 85 151 4.3 9.6 0.00 0.00 0.00 72 1011.9
20260903144529 84 156 2.6 7.8 0.00 0.00 0.00 76 1011.8
20260903143048 83 164 4.3 8.7 0.00 0.00 0.00 77 1012.0
20260903141602 83 142 2.6 7.8 0.00 0.00 0.00 80 1012.0
20260903140035 82 128 2.6 6.1 0.00 0.00 0.00 82 1012.1
20260903134602 81 157 2.6 6.1 0.00 0.00 0.00 82 1012.1
20260903133029 81 173 3.5 7.0 0.00 0.00 0.00 82 1012.2
20260903131546 81 157 4.3 7.0 0.00 0.00 0.00 83 1012.1
20260903130002 80 166 2.6 7.0 0.00 0.00 0.00 84 1012.0
20260903124520 79 165 2.6 6.1 0.00 0.00 0.00 84 1012.0
20260903123039 79 166 1.7 5.2 0.00 0.00 0.00 84 1011.8
20260903121556 79 165 2.6 7.8 0.00 0.00 0.00 84 1011.8
20260903120011 80 175 1.7 8.7 0.00 0.00 0.00 84 1011.7
20260903114548 80 149 3.5 7.8 0.00 0.00 0.00 84 1011.7
20260903113025 80 130 3.5 8.7 0.00 0.00 0.00 84 1011.6
20260903111557 80 165 3.5 12.2 0.00 0.00 0.00 84 1011.5
20260903110023 80 154 2.6 7.0 0.00 0.00 0.00 84 1011.4
20260903104544 80 155 2.6 8.7 0.00 0.00 0.00 84 1011.4
20260903103058 80 169 1.7 8.7 0.00 0.00 0.00 84 1011.4
20260903101535 80 144 1.7 7.0 0.00 0.00 0.00 84 1011.5
20260903100034 80 154 3.5 7.8 0.00 0.00 0.00 84 1011.4
20260903094639 80 156 3.5 9.6 0.00 0.00 0.00 84 1011.3
20260903093022 80 124 2.6 7.0 0.00 0.00 0.00 85 1011.3
20260903091542 80 183 5.2 8.7 0.00 0.00 0.00 85 1011.2
20260903090056 80 136 3.5 6.1 0.00 0.00 0.00 85 1011.3
20260903084525 80 153 3.5 5.2 0.00 0.00 0.00 85 1011.3
20260903083041 80 158 1.7 7.0 0.00 0.00 0.00 85 1011.4
20260903081554 80 141 1.7 6.1 0.00 0.00 0.00 85 1011.5
20260903080025 80 158 1.7 5.2 0.00 0.00 0.00 85 1011.4
20260903074534 80 153 0.9 7.8 0.00 0.00 0.00 85 1011.4
20260903073102 80 165 2.6 7.8 0.00 0.00 0.00 84 1011.1
20260903071513 80 158 3.5 9.6 0.00 0.00 0.00 84 1011.2
20260903070031 80 174 2.6 7.8 0.00 0.00 0.00 84 1011.2
20260903064552 80 135 2.6 6.1 0.00 0.00 0.00 83 1011.5
20260903063102 80 170 2.6 5.2 0.00 0.00 0.00 83 1011.7
20260903061526 81 130 1.7 5.2 0.00 0.00 0.00 82 1011.7
20260903060039 81 148 3.5 7.0 0.00 0.00 0.00 82 1011.6
20260903054609 81 156 3.5 9.6 0.00 0.00 0.00 81 1011.5
20260903053011 82 152 7.0 11.3 0.00 0.00 0.00 80 1011.3
20260903051530 82 146 5.2 12.2 0.00 0.00 0.00 78 1011.1
20260903050048 82 161 6.1 11.3 0.00 0.00 0.00 77 1010.8
20260903044509 83 145 6.1 11.3 0.00 0.00 0.00 75 1010.9
20260903043025 83 136 4.3 9.6 0.00 0.00 0.00 74 1010.9
20260903041545 84 158 5.2 10.4 0.00 0.00 0.00 72 1010.8
20260903040120 85 150 4.3 8.7 0.00 0.00 0.00 71 1010.8